Location: Boissi�res
(45.2500°N, 2.3667°E)
Time: 08:38:33
(UTC+00:00)

Cosmos 2278 Rocket - Pass Details

Date: 03 March 2021
Orbit: 841 x 845 km, 71.0° (Epoch: 18 April)

Event Time Altitude Azimuth Distance (km) Brightness Sun altitude
Rises 18:39:46 0° 343° (NNW) 3,415 5.6 -11.2°
Reaches altitude 10° 18:43:27 10° 7° (N) 2,475 4.6 -11.8°
Maximum altitude 18:46:33 15° 40° (NE) 2,152 4.0 -12.4°
Enters shadow 18:48:30 13° 63° (ENE) 2,282 3.9 -12.7°
